N7NKE Weather Reports


Display with metric or nautical units.
time (UTC)temp
F
wind
direction
speed
MPH
gust
MPH
rain 1hr
in
rain 24hr
in
rain mn
in
humidity
%
barometer
mb
20260504150505 56 0 3.0 10.0 0.00 0.00 0.00 83 1012.8
20260504141004 54 210 5.0 12.0 0.00 0.00 0.00 86 1012.4
20260504140505 54 197 5.0 12.0 0.00 0.00 0.00 86 1012.3
20260504130504 55 202 5.0 14.0 0.00 0.00 0.00 85 1011.2
20260504110505 59 198 9.0 14.0 0.00 0.00 0.00 76 1009.4
20260504100504 60 199 4.0 7.0 0.00 0.00 0.00 75 1008.7
20260504082005 66 182 2.0 3.0 0.00 0.00 0.00 62 1008.2
20260504081505 67 166 1.0 2.0 0.00 0.00 0.00 60 1008.1
20260504081005 68 168 2.0 3.0 0.00 0.00 0.00 59 1008.1
20260504050005 73 262 1.0 1.0 0.00 0.00 0.00 47 1007.6
20260504045504 74 38 1.0 2.0 0.00 0.00 0.00 48 1007.6
20260504045004 74 287 2.0 3.0 0.00 0.00 0.00 44 1007.6
20260504044505 75 263 2.0 3.0 0.00 0.00 0.00 44 1007.5
20260504044005 76 247 3.0 3.0 0.00 0.00 0.00 43 1007.5
20260504043505 76 266 2.0 3.0 0.00 0.00 0.00 42 1007.4
20260504043004 76 300 2.0 3.0 0.00 0.00 0.00 42 1007.4
20260504042504 76 290 2.0 2.0 0.00 0.00 0.00 41 1007.4
20260504041505 77 321 2.0 3.0 0.00 0.00 0.00 41 1007.3
20260504041005 77 317 3.0 5.0 0.00 0.00 0.00 39 1007.2
20260504040005 77 301 2.0 3.0 0.00 0.00 0.00 41 1007.1
20260504035504 77 307 2.0 3.0 0.00 0.00 0.00 41 1007.1
20260504035004 77 308 2.0 5.0 0.00 0.00 0.00 42 1007.0
20260504034504 77 318 2.0 3.0 0.00 0.00 0.00 42 1007.0
20260504034004 77 300 1.0 2.0 0.00 0.00 0.00 42 1006.9
20260504033505 77 296 1.0 2.0 0.00 0.00 0.00 41 1006.9
20260504033005 77 328 2.0 3.0 0.00 0.00 0.00 40 1006.8
20260504031507 77 297 1.0 3.0 0.00 0.00 0.00 40 1006.7
20260504031005 77 322 1.0 2.0 0.00 0.00 0.00 42 1006.6
20260504030005 78 257 1.0 2.0 0.00 0.00 0.00 43 1006.5
20260504025005 80 248 2.0 3.0 0.00 0.00 0.00 38 1006.4
20260504024504 81 245 2.0 2.0 0.00 0.00 0.00 39 1006.4
20260504024004 82 245 2.0 2.0 0.00 0.00 0.00 37 1006.4
20260504023505 84 245 2.0 2.0 0.00 0.00 0.00 35 1006.4
20260504021505 85 245 2.0 2.0 0.00 0.00 0.00 35 1006.3
20260504021004 85 245 1.0 1.0 0.00 0.00 0.00 37 1006.3
20260504015504 87 245 1.0 2.0 0.00 0.00 0.00 36 1006.3
20260504015005 87 245 1.0 2.0 0.00 0.00 0.00 37 1006.4
20260504014505 88 245 1.0 1.0 0.00 0.00 0.00 37 1006.4
20260504014004 89 245 1.0 2.0 0.00 0.00 0.00 34 1006.5
20260504013504 90 245 1.0 1.0 0.00 0.00 0.00 34 1006.4
20260504013005 91 245 1.0 1.0 0.00 0.00 0.00 32 1006.5
20260504012504 92 202 1.0 2.0 0.00 0.00 0.00 31 1006.5
20260504012004 92 94 1.0 2.0 0.00 0.00 0.00 28 1006.6
20260504011504 92 94 1.0 2.0 0.00 0.00 0.00 24 1006.6
20260504011005 92 94 0.0 2.0 0.00 0.00 0.00 27 1006.7
20260504010504 92 94 1.0 2.0 0.00 0.00 0.00 25 1006.7
20260504010004 91 94 0.0 2.0 0.00 0.00 0.00 22 1006.8
20260504005504 91 94 1.0 2.0 0.00 0.00 0.00 23 1006.9
20260504005005 92 94 1.0 2.0 0.00 0.00 0.00 24 1006.9
20260504004005 91 94 1.0 2.0 0.00 0.00 0.00 22 1007.0
20260504003005 91 86 1.0 2.0 0.00 0.00 0.00 22 1007.0
20260504002505 91 102 1.0 1.0 0.00 0.00 0.00 24 1007.0
20260504002004 92 102 1.0 1.0 0.00 0.00 0.00 26 1007.0
20260504001005 92 338 2.0 2.0 0.00 0.00 0.00 22 1007.1
20260504000505 92 18 1.0 2.0 0.00 0.00 0.00 25 1007.1
20260504000004 92 319 1.0 2.0 0.00 0.00 0.00 21 1007.2
20260503235505 91 299 2.0 2.0 0.00 0.00 0.00 22 1007.3
20260503235004 91 317 1.0 2.0 0.00 0.00 0.00 23 1007.3
20260503234505 91 342 1.0 2.0 0.00 0.00 0.00 23 1007.4
20260503234004 91 342 1.0 2.0 0.00 0.00 0.00 25 1007.4
20260503233005 90 96 0.0 2.0 0.00 0.00 0.00 22 1007.6
20260503232505 90 80 2.0 2.0 0.00 0.00 0.00 25 1007.6
20260503232005 90 37 1.0 2.0 0.00 0.00 0.00 25 1007.7
20260503231504 90 6 1.0 2.0 0.00 0.00 0.00 23 1007.7
20260503231004 89 6 2.0 3.0 0.00 0.00 0.00 22 1007.7
20260503230005 89 300 1.0 2.0 0.00 0.00 0.00 24 1007.9
20260503225504 89 331 2.0 3.0 0.00 0.00 0.00 23 1008.0
20260503225004 89 303 1.0 2.0 0.00 0.00 0.00 22 1008.1
20260503224504 89 341 1.0 3.0 0.00 0.00 0.00 27 1008.2
20260503224005 89 326 1.0 2.0 0.00 0.00 0.00 25 1008.3
20260503222504 89 57 2.0 3.0 0.00 0.00 0.00 27 1008.5
20260503222005 89 9 1.0 2.0 0.00 0.00 0.00 27 1008.6
20260503221505 88 9 2.0 3.0 0.00 0.00 0.00 26 1008.6
20260503221004 88 11 1.0 2.0 0.00 0.00 0.00 29 1008.8
20260503220504 88 349 2.0 3.0 0.00 0.00 0.00 29 1008.8
20260503220004 88 88 2.0 3.0 0.00 0.00 0.00 29 1008.9
20260503215504 88 357 1.0 3.0 0.00 0.00 0.00 28 1009.0
20260503215004 88 358 2.0 5.0 0.00 0.00 0.00 29 1008.9
20260503214504 88 106 2.0 5.0 0.00 0.00 0.00 30 1009.1
20260503214004 87 70 2.0 7.0 0.00 0.00 0.00 29 1009.1
20260503213504 87 4 1.0 2.0 0.00 0.00 0.00 32 1009.1
20260503213004 87 350 1.0 5.0 0.00 0.00 0.00 31 1009.2
20260503212005 87 73 1.0 2.0 0.00 0.00 0.00 32 1009.3
20260503211504 87 23 1.0 2.0 0.00 0.00 0.00 30 1009.2
20260503211004 86 64 2.0 5.0 0.00 0.00 0.00 29 1009.3
20260503210005 86 10 2.0 5.0 0.00 0.00 0.00 33 1009.5
20260503205004 86 332 3.0 5.0 0.00 0.00 0.00 35 1009.6
20260503204504 86 39 2.0 6.0 0.00 0.00 0.00 34 1009.6
20260503204005 85 18 2.0 6.0 0.00 0.00 0.00 33 1009.6
20260503203504 85 19 2.0 3.0 0.00 0.00 0.00 34 1009.8
20260503203004 86 1 1.0 3.0 0.00 0.00 0.00 33 1009.8
20260503202505 85 41 2.0 5.0 0.00 0.00 0.00 34 1009.9
20260503202005 85 0 2.0 3.0 0.00 0.00 0.00 34 1010.0
20260503201504 85 45 1.0 2.0 0.00 0.00 0.00 33 1010.0
20260503201004 85 320 1.0 6.0 0.00 0.00 0.00 35 1010.1
20260503193005 83 60 2.0 3.0 0.00 0.00 0.00 38 1010.5
20260503192504 83 63 2.0 3.0 0.00 0.00 0.00 39 1010.6
20260503191504 82 344 1.0 3.0 0.00 0.00 0.00 42 1010.6
20260503191004 82 56 2.0 5.0 0.00 0.00 0.00 45 1010.7
20260503190005 82 15 2.0 5.0 0.00 0.00 0.00 44 1010.7
20260503185505 82 6 3.0 5.0 0.00 0.00 0.00 48 1010.8
20260503185005 82 58 1.0 3.0 0.00 0.00 0.00 46 1010.8
20260503184504 81 74 2.0 2.0 0.00 0.00 0.00 50 1010.8
20260503184004 81 56 2.0 3.0 0.00 0.00 0.00 53 1010.8
20260503183504 80 83 2.0 3.0 0.00 0.00 0.00 53 1010.8
20260503182505 78 29 1.0 3.0 0.00 0.00 0.00 56 1011.0
20260503182006 78 51 1.0 2.0 0.00 0.00 0.00 55 1011.0
20260503181505 78 74 2.0 3.0 0.00 0.00 0.00 59 1011.0
20260503181004 78 89 2.0 3.0 0.00 0.00 0.00 56 1011.0
20260503180504 77 82 2.0 3.0 0.00 0.00 0.00 59 1011.1
20260503180005 77 85 2.0 3.0 0.00 0.00 0.00 60 1011.1
20260503175504 76 91 1.0 5.0 0.00 0.00 0.00 60 1011.1
20260503175004 76 352 1.0 3.0 0.00 0.00 0.00 60 1011.2
20260503174505 76 74 1.0 3.0 0.00 0.00 0.00 61 1011.2
20260503174004 76 87 2.0 3.0 0.00 0.00 0.00 60 1011.3
20260503173504 75 73 2.0 3.0 0.00 0.00 0.00 60 1011.3
20260503173004 75 42 1.0 3.0 0.00 0.00 0.00 62 1011.3
20260503172505 74 96 2.0 5.0 0.00 0.00 0.00 63 1011.3
20260503172005 74 60 1.0 3.0 0.00 0.00 0.00 64 1011.3
20260503171004 73 97 2.0 5.0 0.00 0.00 0.00 66 1011.4
20260503170504 72 65 1.0 3.0 0.00 0.00 0.00 66 1011.5